Location: Asheville, NC
(35.6000°N, 82.5500°W)
Time: 01:28:01
(UTC-04:00)

UWE-3 - Pass Details

Date: 11 January 2018
Orbit: 584 x 685 km, 97.6° (Epoch: 20 July)

Event Time Altitude Azimuth Distance (km) Brightness Sun altitude
Rises 18:59:08 0° 150° (SSE) 2,833 ? -16.5°
Reaches altitude 10° 19:01:21 10° 144° (SE) 1,948 ? -16.9°
Maximum altitude 19:05:20 42° 73° (ENE) 890 ? -17.7°
Drops below altitude 10° 19:09:28 10° 3° (N) 2,017 ? -18.5°
Sets 19:11:47 0° 357° (N) 2,947 ? -19.0°
